Weather History for Marshalltown, IA

Change the Weather History Date:

Monday, October 17, 2011

  Actual Average Record
Temperature  
Mean Temperature 45 °F 50 °F  
Max Temperature 58 °F 61 °F 75 °F (2005)
Min Temperature 32 °F 38 °F 23 °F (2001)
Degree Days  
Heating Degree Days 20 15  
Month to date heating degree days 109 215  
Since 1 July heating degree days 312 375  
Cooling Degree Days 0 0  
Month to date cooling degree days 15 10  
Year to date cooling degree days 896 728  
Moisture  
Dew Point 30 °F    
Average Humidity 58    
Maximum Humidity 82    
Minimum Humidity 33    
Precipitation  
Precipitation 0.00 in 0.07 in 1.03 in (1998)
Month to date precipitation 1.09 1.21  
Year to date precipitation 22.75  
Sea Level Pressure  
Sea Level Pressure 29.96 in    
Wind  
Wind Speed 8 mph (WNW)    
Max Wind Speed 22 mph    
Max Gust Speed 31 mph    
Visibility 10 miles    
Events      
T = Trace of Precipitation, MM = Missing Value Source: NWS Daily Summary

Daily Weather History Graph

Daily Weather History Graph

Search for Another Location

Airport:

Trip Planner

Search our weather history database for the weather conditions in past years. The results will help you decide how hot, cold, wet, or windy it might be!

Date:

Astronomy

Oct. 17, 2011 Rise Set
Actual Time 7:26 AM CDT 6:27 PM CDT
Civil Twilight 6:58 AM CDT 6:55 PM CDT
Nautical Twilight 6:25 AM CDT 7:27 PM CDT
Astronomical Twilight 5:53 AM CDT 8:00 PM CDT
Moon 10:04 PM CDT (10/17) 12:37 PM CDT (10/17)
Length of Visible Light 11h 57m
Length of Day
11h 00m
Waning Gibbous, 74% of the Moon is Illuminated
Oct 17
Waning Gibbous
Oct 19
Last Quarter
Oct 26
New
Nov 2
First Quarter
Nov 10
Full

Hourly Weather History & Observations

Time (CDT) Temp. Windchill Dew Point Humidity Pressure Visibility Wind Dir Wind Speed Gust Speed Precip Events Conditions
12:53 AM 36.0 °F 30.3 °F 28.9 °F 76% 29.99 in 10.0 mi NW 6.9 mph - N/A   Clear
1:53 AM 37.0 °F 31.0 °F 28.9 °F 73% 29.99 in 10.0 mi WNW 8.1 mph - N/A   Clear
2:53 AM 34.0 °F 27.2 °F 28.0 °F 79% 29.99 in 10.0 mi WNW 8.1 mph - N/A   Clear
3:53 AM 34.0 °F 28.8 °F 28.0 °F 79% 29.97 in 10.0 mi West 5.8 mph - N/A   Clear
5:53 AM 33.1 °F 30.0 °F 28.0 °F 82% 29.99 in 10.0 mi West 3.5 mph - N/A   Clear
6:53 AM 34.0 °F 29.8 °F 28.9 °F 82% 29.98 in 10.0 mi West 4.6 mph - N/A   Clear
7:53 AM 36.0 °F - 30.9 °F 82% 29.98 in 10.0 mi Calm Calm - N/A   Clear
8:53 AM 39.0 °F 35.7 °F 33.1 °F 79% 29.99 in 10.0 mi West 4.6 mph - N/A   Clear
9:53 AM 43.0 °F 39.5 °F 35.1 °F 74% 30.00 in 10.0 mi West 5.8 mph - N/A   Mostly Cloudy
10:53 AM 45.0 °F 40.6 °F 34.0 °F 65% 30.01 in 10.0 mi WNW 8.1 mph - N/A   Overcast
11:53 AM 50.0 °F - 34.0 °F 54% 30.00 in 10.0 mi WNW 9.2 mph - N/A   Overcast
12:53 PM 52.0 °F - 32.0 °F 47% 29.99 in 10.0 mi West 13.8 mph - N/A   Clear
1:53 PM 53.1 °F - 30.9 °F 43% 29.96 in 10.0 mi West 12.7 mph - N/A   Clear
2:53 PM 54.0 °F - 30.9 °F 41% 29.93 in 10.0 mi West 10.4 mph - N/A   Clear
3:53 PM 57.0 °F - 28.0 °F 33% 29.91 in 10.0 mi WNW 15.0 mph 24.2 mph N/A   Clear
4:53 PM 57.9 °F - 28.0 °F 32% 29.89 in 10.0 mi WNW 19.6 mph 31.1 mph N/A   Clear
5:53 PM 55.0 °F - 28.9 °F 37% 29.90 in 10.0 mi WNW 9.2 mph - N/A   Clear
6:53 PM 48.9 °F - 28.9 °F 46% 29.93 in 10.0 mi NW 9.2 mph - N/A   Clear
7:53 PM 43.0 °F 39.5 °F 28.9 °F 58% 29.94 in 10.0 mi West 5.8 mph - N/A   Clear
8:53 PM 43.0 °F 40.3 °F 28.9 °F 58% 29.95 in 10.0 mi West 4.6 mph - N/A   Clear
9:53 PM 44.1 °F 40.8 °F 30.9 °F 60% 29.95 in 10.0 mi WNW 5.8 mph - N/A   Clear
10:53 PM 44.1 °F 39.5 °F 30.9 °F 60% 29.94 in 10.0 mi WNW 8.1 mph - N/A   Clear
11:53 PM 39.9 °F 35.1 °F 30.0 °F 68% 29.92 in 10.0 mi NW 6.9 mph - N/A   Clear